Regional Weather Roundup
Issued by NWS Sioux Falls, SD

Home | Current Version | Previous Version | Graphics & Text | Print | Product List | Glossary On
Versions: 1 2 3 4 5 6 7 8 9 10 11 12 13 14 15 16 17 18 19 20 21 22 23 24 25 26 27 28 29 30 31 32 33 34 35 36 37 38 39 40 41 42 43 44 45 46 47 48 49 50
000
ASUS43 KFSD 260602
RWRFSD

WEATHER ROUNDUP FOR SE SOUTH DAKOTA/SW MINNESOTA/NW IOWA
NATIONAL WEATHER SERVICE SIOUX FALLS SD
100 AM CDT SUN MAR 26 2017

NOTE: "FAIR" INDICATES FEW OR NO CLOUDS BELOW 12,000 FEET WITH NO
SIGNIFICANT WEATHER AND OR OBSTRUCTIONS TO VISIBILITY.


SDZ038>040-050-052>070-260700-
SOUTHEAST SOUTH DAKOTA

CITY           SKY/WX    TMP DP  RH WIND       PRES   REMARKS
CHAMBERLAIN    NOT AVBL
HURON          CLOUDY    40  38  93 SE8       29.95F
6HR MIN TEMP:  40; 6HR MAX TEMP:  43;

MADISON        CLOUDY    36  36 100 E6        29.95F FOG
MITCHELL       CLOUDY    39  39 100 SE7       29.96F FOG
6HR MIN TEMP:  39; 6HR MAX TEMP:  45;

SIOUX FALLS    CLOUDY    39  37  92 E8        29.96S
6HR MIN TEMP:  39; 6HR MAX TEMP:  41;

WINNER         CLOUDY    41  38  89 SE14      29.90S
YANKTON        CLOUDY    37  36  93 E6        29.95F
$$

MNZ071-072-080-081-089-090-097-098-260700-
SOUTHWEST MINNESOTA

CITY           SKY/WX    TMP DP  RH WIND       PRES   REMARKS
FAIRMONT       MIX PCPN  37  36  96 NE7       29.95F FOG
JACKSON        CLOUDY    36  36 100 E10       29.95S FOG
LUVERNE        CLOUDY    36  34  93 E6        29.96F
MARSHALL       CLOUDY    37  35  92 E7        29.98F
6HR MIN TEMP:  37; 6HR MAX TEMP:  40; 6HR PCP: TRACE;

MONTEVIDEO     CLOUDY    37  37 100 SE7       30.00F
PIPESTONE      FOG       37  34  87 E9        29.94S VSB 1
REDWOOD FALLS  CLOUDY    39  34  82 E7        29.98F
TRACY          CLOUDY    37  37  97 E6        29.97F FOG
WINDOM         DRIZZLE   37  36  93 NE9       29.96S
WORTHINGTON    CLOUDY    36  35  96 NE8       29.95F
$$

IAZ001>003-012>014-020>022-031-032-NEZ013-014-SDZ071-260700-
NORTHWEST IOWA

CITY           SKY/WX    TMP DP  RH WIND       PRES   REMARKS
CHEROKEE       CLOUDY    37  37 100 NE5       29.92F FOG
ESTHERVILLE    CLOUDY    36  36 100 NE8       29.94F FOG
LE MARS        CLOUDY    39  37  93 NE5       29.95F FOG
ORANGE CITY    CLOUDY    37  37 100 E6        29.93F FOG
SHELDON        CLOUDY    37  37 100 E9        29.92F FOG
SIOUX CITY     CLOUDY    39  39 100 NE3       29.94F
6HR MIN TEMP:  39; 6HR MAX TEMP:  41;

SPENCER        CLOUDY    37  37 100 E13       29.93F FOG
6HR MIN TEMP:  37; 6HR MAX TEMP:  38;

STORM LAKE     FOG       37  37 100 NE9       29.91F VSB 1/4
$$

ABBREVIATIONS USED IN REMARKS
   TC - TEMPERATURE IN CELSIUS
  WCI - WIND CHILL INDEX
   HX - HEAT INDEX
  VSB - VISIBILITY





USA.gov is the U.S. government's official web portal to all federal, state and local government web resources and services.